Location: Barcelona
(41.3830°N, 2.1830°E)
Time: 15:51:09
(UTC+02:00)

ISS - Pass Details

Date: 12 September 2019
Orbit: 411 x 421 km, 51.6° (Epoch: 18 September)

Event Time Altitude Azimuth Distance (km) Brightness Sun altitude
Exits shadow 04:43:56 15° 31° (NNE) 1,221 -0.7 -29.2°
Drops below altitude 10° 04:45:16 10° 53° (NE) 1,490 0.0 -29.0°
Sets 04:47:56 0° 76° (ENE) 2,355 1.1 -28.6°
